When you browse on this site, cookies collect data to enhance your experience and personalize the content and advertising you see.
Visit our Privacy Policy to learn more. By continuing to use the site, you agree to this use of cookies and data.
  • In Schweiz
  • Länderverzeichnis
  • Für 7 Tage
  • Wassertemperatur
  • Satellitenkarten
  • Wetterkarte
  • Widgets
  • user-avatar
    Anmelden

    Stündliche Wetter Wadshir

    Heute, 25 März, Montag

    Zeit Temperatur Niederschläge Wind Luftdruck Luftfeuchtigkeit
    00:00 +35°C° 0 mm 6 m/S 734 mmHg 39%
    01:00 +34°C° 0 mm 6 m/S 734 mmHg 43%
    02:00 +33°C° 0 mm 6 m/S 734 mmHg 47%
    03:00 +30°C° 0 mm 7 m/S 734 mmHg 52%
    04:00 +30°C° 0 mm 6 m/S 734 mmHg 53%
    05:00 +29°C° 0 mm 6 m/S 735 mmHg 54%
    06:00 +29°C° 0 mm 5 m/S 735 mmHg 55%
    07:00 +30°C° 0 mm 5 m/S 735 mmHg 52%
    08:00 +32°C° 0 mm 5 m/S 736 mmHg 48%
    09:00 +33°C° 0 mm 5 m/S 736 mmHg 44%
    10:00 +34°C° 0 mm 5 m/S 736 mmHg 40%
    11:00 +36°C° 0 mm 5 m/S 736 mmHg 36%
    12:00 +37°C° 0 mm 4 m/S 736 mmHg 32%
    13:00 +38°C° 0 mm 4 m/S 735 mmHg 30%
    14:00 +40°C° 0 mm 4 m/S 734 mmHg 29%
    15:00 +40°C° 0 mm 3 m/S 734 mmHg 27%
    16:00 +41°C° 0 mm 4 m/S 733 mmHg 27%
    17:00 +41°C° 0 mm 4 m/S 733 mmHg 27%
    18:00 +41°C° 0 mm 5 m/S 733 mmHg 27%
    19:00 +40°C° 0 mm 5 m/S 733 mmHg 28%
    20:00 +39°C° 0 mm 5 m/S 733 mmHg 30%
    21:00 +39°C° 0 mm 5 m/S 734 mmHg 31%
    22:00 +37°C° 0 mm 5 m/S 734 mmHg 33%
    23:00 +38°C° 0 mm 6 m/S 734 mmHg 34%

    Morgen, 26 März, Dienstag

    Zeit Temperatur Niederschläge Wind Luftdruck Luftfeuchtigkeit
    00:00 +36°C° 0 mm 6 m/S 735 mmHg 36%
    01:00 +34°C° 0 mm 6 m/S 734 mmHg 43%
    02:00 +33°C° 0 mm 6 m/S 734 mmHg 49%
    03:00 +30°C° 0 mm 7 m/S 734 mmHg 56%
    04:00 +30°C° 0 mm 6 m/S 734 mmHg 59%
    05:00 +29°C° 0 mm 6 m/S 735 mmHg 62%
    06:00 +29°C° 0 mm 5 m/S 735 mmHg 65%
    07:00 +30°C° 0 mm 5 m/S 736 mmHg 62%
    08:00 +32°C° 0 mm 5 m/S 736 mmHg 59%
    09:00 +33°C° 0 mm 5 m/S 737 mmHg 56%
    10:00 +34°C° 0 mm 5 m/S 737 mmHg 51%
    11:00 +36°C° 0 mm 5 m/S 737 mmHg 46%
    12:00 +37°C° 0 mm 4 m/S 736 mmHg 41%
    13:00 +38°C° 0 mm 4 m/S 736 mmHg 39%
    14:00 +38°C° 0 mm 4 m/S 735 mmHg 38%
    15:00 +40°C° 0 mm 4 m/S 734 mmHg 37%
    16:00 +40°C° 0 mm 4 m/S 734 mmHg 37%
    17:00 +38°C° 0 mm 4 m/S 733 mmHg 37%
    18:00 +39°C° 0 mm 5 m/S 733 mmHg 37%
    19:00 +38°C° 0 mm 4 m/S 734 mmHg 38%
    20:00 +38°C° 0 mm 3 m/S 734 mmHg 38%
    21:00 +37°C° 0 mm 3 m/S 735 mmHg 39%
    22:00 +37°C° 0.1 mm 5 m/S 735 mmHg 42%
    23:00 +36°C° 0.1 mm 7 m/S 736 mmHg 45%

    übermorgen, 27 März, Mittwoch

    Zeit Temperatur Niederschläge Wind Luftdruck Luftfeuchtigkeit
    00:00 +35°C° 0.1 mm 8 m/S 736 mmHg 48%
    01:00 +34°C° 0.7 mm 8 m/S 736 mmHg 55%
    02:00 +32°C° 0.7 mm 8 m/S 735 mmHg 61%
    03:00 +30°C° 0.7 mm 7 m/S 735 mmHg 67%
    04:00 +30°C° 0 mm 7 m/S 735 mmHg 69%
    05:00 +29°C° 0 mm 7 m/S 736 mmHg 71%
    06:00 +29°C° 0 mm 7 m/S 736 mmHg 72%
    07:00 +29°C° 4.2 mm 7 m/S 737 mmHg 74%
    08:00 +29°C° 4.2 mm 7 m/S 737 mmHg 75%
    09:00 +29°C° 4.2 mm 7 m/S 738 mmHg 77%
    10:00 +30°C° 0.3 mm 7 m/S 738 mmHg 71%
    11:00 +32°C° 0.3 mm 6 m/S 738 mmHg 65%
    12:00 +33°C° 0.3 mm 6 m/S 738 mmHg 59%
    13:00 +34°C° 1.2 mm 5 m/S 737 mmHg 56%
    14:00 +35°C° 1.2 mm 5 m/S 736 mmHg 54%
    15:00 +36°C° 1.2 mm 4 m/S 736 mmHg 51%
    16:00 +35°C° 0.7 mm 3 m/S 736 mmHg 51%
    17:00 +35°C° 0.7 mm 2 m/S 736 mmHg 51%
    18:00 +34°C° 0.7 mm 1 m/S 736 mmHg 51%
    19:00 +32°C° 11 mm 2 m/S 736 mmHg 61%
    20:00 +31°C° 11 mm 3 m/S 736 mmHg 71%
    21:00 +29°C° 11 mm 3 m/S 737 mmHg 81%
    22:00 +29°C° 14.4 mm 3 m/S 737 mmHg 82%
    23:00 +28°C° 14.4 mm 3 m/S 737 mmHg 83%

    28 März, Donnerstag

    Zeit Temperatur Niederschläge Wind Luftdruck Luftfeuchtigkeit
    00:00 +28°C° 14.4 mm 3 m/S 738 mmHg 84%
    01:00 +28°C° 1.2 mm 4 m/S 737 mmHg 82%
    02:00 +28°C° 1.2 mm 5 m/S 737 mmHg 80%
    03:00 +28°C° 1.2 mm 6 m/S 737 mmHg 78%
    04:00 +28°C° 1.1 mm 5 m/S 737 mmHg 78%
    05:00 +28°C° 1.1 mm 5 m/S 737 mmHg 78%
    06:00 +28°C° 1.1 mm 5 m/S 738 mmHg 79%
    07:00 +29°C° 0 mm 5 m/S 738 mmHg 76%
    08:00 +29°C° 0 mm 6 m/S 739 mmHg 73%
    09:00 +30°C° 0 mm 6 m/S 740 mmHg 70%
    10:00 +32°C° 0 mm 5 m/S 739 mmHg 67%
    11:00 +32°C° 0 mm 5 m/S 738 mmHg 63%
    12:00 +33°C° 0 mm 5 m/S 738 mmHg 59%
    13:00 +34°C° 0 mm 4 m/S 737 mmHg 56%
    14:00 +35°C° 0 mm 4 m/S 736 mmHg 53%
    15:00 +35°C° 0 mm 4 m/S 735 mmHg 49%
    16:00 +35°C° 0 mm 4 m/S 735 mmHg 49%
    17:00 +35°C° 0 mm 4 m/S 735 mmHg 49%
    18:00 +35°C° 0 mm 4 m/S 735 mmHg 49%
    19:00 +35°C° 0 mm 4 m/S 735 mmHg 51%
    20:00 +34°C° 0 mm 4 m/S 736 mmHg 54%
    21:00 +34°C° 0 mm 4 m/S 736 mmHg 57%
    22:00 +33°C° 0 mm 3 m/S 736 mmHg 59%
    23:00 +32°C° 0 mm 2 m/S 736 mmHg 61%

    29 März, Freitag

    Zeit Temperatur Niederschläge Wind Luftdruck Luftfeuchtigkeit
    00:00 +32°C° 0 mm 1 m/S 736 mmHg 62%
    01:00 +31°C° 0 mm 2 m/S 736 mmHg 64%
    02:00 +30°C° 0 mm 3 m/S 735 mmHg 66%
    03:00 +30°C° 0 mm 4 m/S 735 mmHg 68%
    04:00 +29°C° 0 mm 3 m/S 735 mmHg 69%
    05:00 +29°C° 0 mm 3 m/S 736 mmHg 71%
    06:00 +29°C° 0 mm 3 m/S 736 mmHg 72%
    07:00 +30°C° 0 mm 3 m/S 737 mmHg 70%
    08:00 +30°C° 0 mm 4 m/S 737 mmHg 67%
    09:00 +32°C° 0 mm 4 m/S 738 mmHg 65%
    10:00 +33°C° 0 mm 4 m/S 737 mmHg 61%
    11:00 +34°C° 0 mm 3 m/S 737 mmHg 57%
    12:00 +35°C° 0 mm 3 m/S 736 mmHg 53%
    13:00 +35°C° 0 mm 3 m/S 735 mmHg 50%
    14:00 +36°C° 0 mm 3 m/S 735 mmHg 48%
    15:00 +36°C° 0 mm 3 m/S 734 mmHg 46%
    16:00 +36°C° 0 mm 3 m/S 734 mmHg 46%
    17:00 +36°C° 0 mm 3 m/S 734 mmHg 46%
    18:00 +36°C° 0 mm 3 m/S 734 mmHg 46%
    19:00 +36°C° 0 mm 3 m/S 734 mmHg 48%
    20:00 +35°C° 0 mm 3 m/S 735 mmHg 50%
    21:00 +35°C° 0 mm 2 m/S 735 mmHg 52%
    22:00 +34°C° 0 mm 2 m/S 735 mmHg 53%
    23:00 +34°C° 0 mm 2 m/S 735 mmHg 54%

    30 März, Samstag

    Zeit Temperatur Niederschläge Wind Luftdruck Luftfeuchtigkeit
    00:00 +34°C° 0 mm 2 m/S 735 mmHg 56%
    01:00 +33°C° 0 mm 3 m/S 734 mmHg 58%
    02:00 +32°C° 0 mm 4 m/S 734 mmHg 61%
    03:00 +30°C° 0 mm 6 m/S 734 mmHg 63%
    04:00 +30°C° 0 mm 6 m/S 734 mmHg 64%
    05:00 +29°C° 0 mm 5 m/S 735 mmHg 65%
    06:00 +29°C° 0 mm 5 m/S 736 mmHg 66%
    07:00 +29°C° 0 mm 5 m/S 736 mmHg 64%
    08:00 +30°C° 0 mm 5 m/S 737 mmHg 63%
    09:00 +32°C° 0 mm 5 m/S 737 mmHg 62%
    10:00 +33°C° 0 mm 5 m/S 737 mmHg 58%
    11:00 +34°C° 0 mm 4 m/S 736 mmHg 54%
    12:00 +35°C° 0 mm 4 m/S 736 mmHg 50%
    13:00 +36°C° 0 mm 4 m/S 735 mmHg 48%
    14:00 +36°C° 0 mm 4 m/S 734 mmHg 45%
    15:00 +37°C° 0 mm 3 m/S 733 mmHg 43%
    16:00 +37°C° 0 mm 3 m/S 733 mmHg 42%
    17:00 +37°C° 0 mm 3 m/S 733 mmHg 42%
    18:00 +37°C° 0 mm 4 m/S 734 mmHg 41%
    19:00 +37°C° 0 mm 3 m/S 734 mmHg 43%
    20:00 +36°C° 0 mm 2 m/S 734 mmHg 45%
    21:00 +36°C° 0 mm 2 m/S 734 mmHg 47%
    22:00 +35°C° 0 mm 2 m/S 734 mmHg 48%
    23:00 +35°C° 0 mm 3 m/S 734 mmHg 49%
    Mehr zeigen